{"data":{"norad_id":49457,"epoch":"2026-09-20T03:05:27.949344Z","epoch_age_seconds":77331,"freshness":"FRESH","line1":"1 49457U 21104BB  26263.12879571  .00003253  00000+0  11654-3 0  9998","line2":"2 49457  53.1612  53.5735 0000795  90.5098 269.5995 15.31701280268299","mean_motion":15.3170128,"eccentricity":7.95e-5,"inclination_deg":53.1612,"raan_deg":53.5735,"arg_perigee_deg":90.5098,"mean_anomaly_deg":269.5995,"bstar":0.00011654,"rev_number":26829,"period_min":94.013109396892,"perigee_km":470.19169419713,"apogee_km":471.28066503269,"semimajor_km":6848.8731796149,"source":"CELESTRAK","updated_at":"2026-09-20T09:00:39.402107Z"}}